{"data":{"norad_id":63250,"intl_designator":"2025-052AS","name":"EZIE-B","alt_names":[],"object_type":"PAYLOAD","status":"ACTIVE","operator":null,"country":"US","launch_date":"2025-03-15","launch_site_code":"AFWTR","launch_vehicle":null,"mission":null,"orbit_class":"UNKNOWN","rcs_meters":null,"size_class":null,"mass_kg":null,"dimensions":null,"purposes":[],"wikipedia_slug":null,"has_3d_model":false,"image_url":null,"decayed_at":null,"tle_current":{"epoch":"2026-05-24T15:25:54.736032Z","epoch_age_seconds":109486,"freshness":"FRESH","line1":"1 63250U 25052AS  26144.64299463  .00003341  00000+0  29492-3 0  9999","line2":"2 63250  97.6926  37.2441 0001586 273.3533  86.7508 14.97059904 65142","mean_motion":14.97059904,"eccentricity":0.0001586,"inclination_deg":97.6926,"raan_deg":37.2441,"arg_perigee_deg":273.3533,"mean_anomaly_deg":86.7508,"bstar":0.00029492,"rev_number":6514,"period_min":96.188535686011,"perigee_km":574.88341067085,"apogee_km":577.0892585926,"semimajor_km":6954.1233346317,"source":"CELESTRAK","updated_at":"2026-05-25T13:38:03.605590Z"}}}